| time (UTC) | temp F | wind direction | speed knots | gust knots | rain 1hr in | rain 24hr in | rain mn in | humidity % | barometer mb |
| 20260507103057 | 53 | 203 | 4.3 | 8.7 | 0.00 | 0.00 | 0.00 | 67 | 1013.0 |
| 20260507101616 | 53 | 225 | 2.6 | 9.6 | 0.00 | 0.00 | 0.00 | 66 | 1013.0 |
| 20260507100057 | 54 | 234 | 3.5 | 13.9 | 0.00 | 0.00 | 0.00 | 64 | 1012.7 |
| 20260507094557 | 55 | 194 | 4.3 | 13.9 | 0.00 | 0.00 | 0.00 | 62 | 1012.5 |
| 20260507093059 | 55 | 205 | 5.2 | 13.0 | 0.00 | 0.00 | 0.00 | 60 | 1012.4 |
| 20260507091559 | 56 | 184 | 5.2 | 11.3 | 0.00 | 0.00 | 0.00 | 59 | 1012.2 |
| 20260507090112 | 57 | 216 | 4.3 | 12.2 | 0.00 | 0.00 | 0.00 | 57 | 1012.0 |
| 20260507084558 | 57 | 185 | 5.2 | 13.0 | 0.00 | 0.00 | 0.00 | 56 | 1011.8 |
| 20260507083056 | 57 | 203 | 4.3 | 10.4 | 0.00 | 0.00 | 0.00 | 54 | 1011.6 |
| 20260507081556 | 58 | 171 | 5.2 | 10.4 | 0.00 | 0.00 | 0.00 | 55 | 1011.3 |
| 20260507074600 | 58 | 171 | 3.5 | 9.6 | 0.00 | 0.00 | 0.00 | 56 | 1011.2 |
| 20260507073057 | 59 | 163 | 4.3 | 8.7 | 0.00 | 0.00 | 0.00 | 56 | 1011.1 |
| 20260507071606 | 59 | 188 | 3.5 | 9.6 | 0.00 | 0.00 | 0.00 | 56 | 1010.9 |
| 20260507070057 | 60 | 236 | 2.6 | 7.0 | 0.00 | 0.00 | 0.00 | 55 | 1010.8 |
| 20260507064616 | 60 | 218 | 3.5 | 7.8 | 0.00 | 0.00 | 0.00 | 53 | 1010.4 |
| 20260507063058 | 60 | 227 | 0.9 | 3.5 | 0.00 | 0.00 | 0.00 | 52 | 1010.4 |
| 20260507061557 | 62 | 228 | 2.6 | 7.0 | 0.00 | 0.00 | 0.00 | 50 | 1010.3 |
| 20260507060057 | 62 | 172 | 2.6 | 6.1 | 0.00 | 0.00 | 0.00 | 49 | 1010.0 |
| 20260507054608 | 63 | 259 | 3.5 | 9.6 | 0.00 | 0.00 | 0.00 | 50 | 1010.0 |
| 20260507053058 | 63 | 238 | 3.5 | 7.0 | 0.00 | 0.00 | 0.00 | 50 | 1010.0 |
| 20260507051559 | 65 | 196 | 1.7 | 9.6 | 0.00 | 0.00 | 0.00 | 51 | 1010.1 |
| 20260507044557 | 66 | 214 | 3.5 | 8.7 | 0.00 | 0.00 | 0.00 | 52 | 1010.3 |
| 20260507043102 | 66 | 205 | 1.7 | 9.6 | 0.00 | 0.00 | 0.00 | 54 | 1010.4 |
| 20260507041608 | 67 | 161 | 5.2 | 9.6 | 0.00 | 0.00 | 0.00 | 52 | 1010.4 |
| 20260507040059 | 68 | 200 | 4.3 | 10.4 | 0.00 | 0.00 | 0.00 | 53 | 1010.2 |
| 20260507034602 | 69 | 196 | 4.3 | 13.9 | 0.00 | 0.00 | 0.00 | 52 | 1010.1 |
| 20260507033057 | 69 | 167 | 5.2 | 10.4 | 0.00 | 0.00 | 0.00 | 52 | 1009.9 |
| 20260507031559 | 69 | 200 | 4.3 | 10.4 | 0.00 | 0.00 | 0.00 | 53 | 1010.0 |
| 20260507024601 | 71 | 144 | 3.5 | 9.6 | 0.00 | 0.00 | 0.00 | 51 | 1010.1 |
| 20260507023112 | 71 | 182 | 3.5 | 9.6 | 0.00 | 0.00 | 0.00 | 50 | 1010.3 |
| 20260507021559 | 72 | 173 | 2.6 | 9.6 | 0.00 | 0.00 | 0.00 | 47 | 1010.4 |
| 20260507020058 | 73 | 184 | 2.6 | 7.8 | 0.00 | 0.00 | 0.00 | 47 | 1010.4 |
| 20260507014607 | 73 | 172 | 2.6 | 9.6 | 0.00 | 0.00 | 0.00 | 45 | 1010.5 |
| 20260507013114 | 73 | 197 | 3.5 | 8.7 | 0.00 | 0.00 | 0.00 | 45 | 1010.7 |
| 20260507011642 | 74 | 182 | 3.5 | 8.7 | 0.00 | 0.00 | 0.00 | 44 | 1010.7 |
| 20260507010622 | 74 | 194 | 4.3 | 12.2 | 0.00 | 0.00 | 0.00 | 44 | 1010.8 |